Flag for Western Sahara Weather past 2 weeks in El Aaiún, Western Sahara

Now
68 °F

Passing clouds.


Feels Like: 68 °F
Forecast: 68 / 80 °F
Wind: 15 mph from North

Location: Laayoune/Hassan Isl

Current Time: Aug 2, 2014 at 3:43:02 AM

Latest Report: Aug 2, 2014 at 3:00 AM


Visibility: 6 mi

Pressure: 30.04 "Hg

Humidity: 88%

Dew point: 64 °F

Location of El AaiúnLocation

Historic Weather in El Aaiún — Graph

°F

El Aaiún temperature yesterday

Maximum temperature yesterday: 84 °F (at 1:00 PM)
Minimum temperature yesterday: 68 °F (at 11:00 PM)
Average temperature yesterday: 74 °F

Past Weeks' High & Low Weather Summary

 TemperatureHumidityPressure
High86 °F (Jul 30, 2:00 PM)94% (Jul 26, 6:00 AM)30.09 "Hg (Jul 26, 6:00 AM)
Low63 °F (Jul 26, 6:00 AM)35% (Jul 30, 3:00 PM)29.92 "Hg (Jul 25, 5:00 PM)
Average74 °F65%30.01 "Hg
* Reported Jul 18 1:00 AM — Aug 2 1:00 AM, El Aaiún, Weather by CustomWeather, © 2014

Note: Actual official high and low records may vary slightly from our data, if they occured in-between our weather recording intervals... More about our weather records

Advertising

El Aaiún weather history for previous 24 hours

 ConditionsComfort  
Time TempWeatherWind HumidityBarometerVisibility
1:00 AM
Aug 2
68 °FPassing clouds.14 mph88%30.04 "Hg5 mi
12:00 AM68 °FMild.16 mph88%30.07 "HgN/A
11:00 PM
Aug 1
68 °FMild.15 mph88%30.07 "HgN/A
10:00 PM70 °FMild.18 mph78%30.07 "HgN/A
9:00 PM72 °FPassing clouds.18 mph73%30.04 "HgN/A
8:00 PM72 °FMild.21 mph69%30.04 "HgN/A
7:00 PM75 °FSunny.24 mph61%30.01 "Hg10 mi
6:00 PM77 °FWarm.25 mph57%30.01 "Hg6 mi
5:00 PM81 °FSunny.26 mph51%30.01 "Hg10 mi
4:00 PM81 °FSunny.25 mph48%30.01 "Hg10 mi
3:00 PM82 °FWarm.25 mph45%30.04 "HgN/A
2:00 PM82 °FSunny.22 mph45%30.04 "Hg10 mi
1:00 PM84 °FWarm.23 mph43%30.07 "HgN/A
12:00 PM81 °FPassing clouds.22 mph48%30.07 "HgN/A
11:00 AM79 °FWarm.22 mph54%30.09 "HgN/A
10:00 AM75 °FScattered clouds.20 mph61%30.07 "Hg1 mi
9:00 AM72 °FOvercast.20 mph69%30.07 "HgN/A
8:00 AM72 °FPassing clouds.18 mph69%30.07 "Hg5 mi
7:00 AM70 °FPassing clouds.17 mph73%30.07 "Hg5 mi
6:00 AM70 °FPassing clouds.15 mph73%30.07 "Hg5 mi
5:00 AM70 °FPassing clouds.15 mph73%30.07 "Hg5 mi
4:00 AM70 °FPassing clouds.20 mph73%30.04 "Hg5 mi
3:00 AM70 °FPassing clouds.18 mph73%30.04 "Hg5 mi
Weather by CustomWeather, © 2014

See weather overviewHow to use our weather pages